Radiation Dose at Monitoring Post of Fukushima Daini Nuclear Power Station
Date,Time,MP-1(microSv/h),MP-2(microSv/h),MP-3(microSv/h),MP-4(microSv/h),MP-5(microSv/h),MP-6(microSv/h),MP-7(microSv/h),Wind Direction,Wind Velocity(m/s),Rain
2018/12/21,00:00,0.229,0.191,0.308,0.290,0.276,0.154,0.094,north-northwest,5.0,No
2018/12/21,00:10,0.228,0.190,0.309,0.289,0.277,0.154,0.095,north-northwest,5.5,No
2018/12/21,00:20,0.228,0.190,0.308,0.290,0.276,0.155,0.094,north-northwest,3.1,No
2018/12/21,00:30,0.228,0.191,0.309,0.289,0.277,0.153,0.095,north,3.1,No
2018/12/21,00:40,0.228,0.191,0.309,0.289,0.276,0.154,0.094,north,3.3,No
2018/12/21,00:50,0.228,0.191,0.309,0.291,0.276,0.155,0.094,north-northeast,3.1,No
2018/12/21,01:00,0.228,0.191,0.308,0.289,0.276,0.154,0.094,north-northeast,2.8,No
2018/12/21,01:10,0.229,0.190,0.308,0.290,0.275,0.154,0.094,north,2.9,No
2018/12/21,01:20,0.229,0.191,0.309,0.290,0.276,0.154,0.094,north,3.8,No
2018/12/21,01:30,0.230,0.190,0.308,0.291,0.276,0.154,0.094,north,4.9,No
2018/12/21,01:40,0.231,0.191,0.309,0.291,0.275,0.154,0.095,north-northwest,4.2,No
2018/12/21,01:50,0.229,0.191,0.308,0.289,0.275,0.155,0.094,north-northwest,3.7,No
2018/12/21,02:00,0.229,0.191,0.308,0.290,0.277,0.153,0.094,north-northwest,3.6,No
2018/12/21,02:10,0.228,0.191,0.308,0.290,0.277,0.154,0.094,north-northwest,3.4,No
2018/12/21,02:20,0.229,0.190,0.308,0.289,0.275,0.155,0.094,northwest,2.9,No
2018/12/21,02:30,0.229,0.191,0.307,0.289,0.275,0.154,0.095,north-northwest,3.0,No
2018/12/21,02:40,0.229,0.191,0.308,0.290,0.276,0.155,0.094,north-northwest,2.4,No
2018/12/21,02:50,0.228,0.191,0.308,0.289,0.275,0.155,0.095,north-northwest,2.3,No
2018/12/21,03:00,0.229,0.191,0.309,0.288,0.277,0.154,0.094,north-northwest,0.8,No
2018/12/21,03:10,0.228,0.190,0.308,0.290,0.276,0.154,0.095,north,0.7,No
2018/12/21,03:20,0.229,0.190,0.308,0.290,0.275,0.154,0.094,northwest,0.7,No
2018/12/21,03:30,0.228,0.191,0.309,0.290,0.275,0.155,0.094,northwest,1.4,No
2018/12/21,03:40,0.229,0.192,0.308,0.288,0.276,0.154,0.094,north,2.2,No
2018/12/21,03:50,0.228,0.191,0.308,0.290,0.276,0.154,0.094,north,2.2,No
2018/12/21,04:00,0.229,0.191,0.307,0.289,0.275,0.154,0.095,north,2.2,No
2018/12/21,04:10,0.228,0.191,0.306,0.289,0.276,0.155,0.094,north-northeast,2.2,No
2018/12/21,04:20,0.228,0.191,0.308,0.290,0.277,0.154,0.094,north-northeast,2.2,No
2018/12/21,04:30,0.229,0.192,0.308,0.288,0.277,0.155,0.095,north,3.9,No
2018/12/21,04:40,0.229,0.191,0.309,0.289,0.277,0.154,0.095,north,4.4,No
2018/12/21,04:50,0.230,0.190,0.307,0.290,0.276,0.154,0.093,north-northwest,3.9,No
2018/12/21,05:00,0.228,0.191,0.308,0.289,0.277,0.154,0.094,northwest,4.2,No
2018/12/21,05:10,0.229,0.191,0.307,0.290,0.276,0.153,0.094,northwest,6.2,No
2018/12/21,05:20,0.228,0.190,0.308,0.290,0.276,0.154,0.094,west-northwest,6.4,No
2018/12/21,05:30,0.228,0.191,0.308,0.289,0.275,0.154,0.094,west-northwest,6.3,No
2018/12/21,05:40,0.228,0.190,0.309,0.289,0.276,0.154,0.094,northwest,4.2,No
2018/12/21,05:50,0.228,0.191,0.309,0.290,0.275,0.154,0.094,west-northwest,4.6,No
2018/12/21,06:00,0.227,0.190,0.307,0.290,0.275,0.154,0.094,west-northwest,3.8,No
2018/12/21,06:10,0.229,0.192,0.307,0.290,0.275,0.154,0.095,west-northwest,2.9,No
2018/12/21,06:20,0.227,0.191,0.308,0.288,0.276,0.155,0.094,west,3.0,No
2018/12/21,06:30,0.228,0.190,0.308,0.289,0.274,0.154,0.094,west-northwest,2.4,No
2018/12/21,06:40,0.228,0.191,0.309,0.289,0.275,0.154,0.095,west,3.5,No
2018/12/21,06:50,0.228,0.191,0.308,0.290,0.276,0.155,0.094,west,4.6,No
2018/12/21,07:00,0.228,0.191,0.308,0.289,0.276,0.153,0.094,west,4.6,No
2018/12/21,07:10,0.228,0.191,0.308,0.290,0.275,0.155,0.094,west-northwest,2.0,No
2018/12/21,07:20,0.228,0.191,0.307,0.289,0.274,0.155,0.094,north-northeast,2.2,No
2018/12/21,07:30,0.229,0.190,0.307,0.289,0.277,0.154,0.094,north-northeast,2.5,No
2018/12/21,07:40,0.228,0.192,0.308,0.289,0.276,0.154,0.094,north-northeast,2.7,No
2018/12/21,07:50,0.228,0.191,0.309,0.289,0.275,0.154,0.093,north,2.0,No
2018/12/21,08:00,0.228,0.190,0.308,0.289,0.276,0.155,0.093,north-northwest,1.9,No
2018/12/21,08:10,0.229,0.190,0.308,0.288,0.275,0.155,0.094,north-northwest,2.4,No
2018/12/21,08:20,0.229,0.190,0.308,0.287,0.277,0.154,0.094,north,1.7,No
2018/12/21,08:30,0.227,0.191,0.309,0.288,0.277,0.154,0.095,north-northeast,1.9,No
2018/12/21,08:40,0.227,0.191,0.308,0.289,0.276,0.154,0.094,north,1.9,No
2018/12/21,08:50,0.227,0.191,0.307,0.288,0.275,0.154,0.093,north-northwest,1.5,No
2018/12/21,09:00,-,0.190,0.307,0.288,0.276,0.153,0.093,north-northwest,2.0,No
2018/12/21,09:10,-,0.190,0.308,0.288,0.275,0.153,0.093,north-northwest,1.4,No
2018/12/21,09:20,-,0.190,0.308,0.288,0.275,0.154,0.093,north-northwest,1.3,No
2018/12/21,09:30,-,0.189,0.308,0.289,0.275,0.153,0.093,north-northeast,1.1,No
2018/12/21,09:40,-,0.189,0.307,0.286,0.276,0.153,0.094,-,CALM,No
2018/12/21,09:50,-,0.190,0.307,0.288,0.274,0.154,0.094,west-southwest,1.0,No
2018/12/21,10:00,-,0.189,0.309,0.288,0.276,0.154,0.094,east,1.1,No
2018/12/21,10:10,-,0.189,0.308,0.287,0.275,0.154,0.093,east,2.0,No
2018/12/21,10:20,-,0.190,0.306,0.289,0.276,0.154,0.094,southeast,0.7,No
2018/12/21,10:30,-,0.190,0.307,0.288,0.274,0.154,0.093,east,1.4,No
2018/12/21,10:40,-,0.190,0.307,0.288,0.276,0.154,0.094,east,2.5,No
2018/12/21,10:50,-,0.188,0.306,0.290,0.274,0.154,0.093,east-southeast,2.2,No
2018/12/21,11:00,-,0.189,0.309,0.288,0.275,0.154,0.094,east-southeast,2.2,No
2018/12/21,11:10,-,0.190,0.306,0.290,0.276,0.155,0.094,east-southeast,2.1,No
2018/12/21,11:20,-,0.190,0.307,0.289,0.276,0.154,0.093,southeast,1.4,No
2018/12/21,11:30,-,0.190,0.307,0.288,0.278,0.153,0.093,east-southeast,1.9,No
2018/12/21,11:40,-,0.190,0.307,0.289,0.275,0.154,0.093,east-southeast,3.0,No
2018/12/21,11:50,-,0.190,0.306,0.288,0.278,0.154,0.093,east-southeast,3.2,No
2018/12/21,12:00,-,0.189,0.309,0.289,0.275,0.154,0.094,east-southeast,2.1,No
2018/12/21,12:10,-,0.190,0.306,0.288,0.278,0.154,0.094,southeast,2.7,No
2018/12/21,12:20,-,0.191,0.306,0.288,0.276,0.155,0.094,east-southeast,2.7,No
2018/12/21,12:30,0.220,0.190,0.306,0.289,0.277,0.155,0.094,east-southeast,2.7,No
2018/12/21,12:40,0.219,0.191,0.306,0.288,0.277,0.155,0.093,east-southeast,2.7,No
2018/12/21,12:50,0.221,0.190,0.308,0.289,0.276,0.154,0.095,southeast,1.9,No
2018/12/21,13:00,0.219,0.190,0.307,0.288,0.279,0.153,0.094,east-southeast,2.8,No
2018/12/21,13:10,0.220,0.191,0.307,0.291,0.276,0.155,0.093,southeast,2.9,No
2018/12/21,13:20,0.218,0.189,0.307,0.289,0.278,0.153,0.094,southeast,2.7,No
2018/12/21,13:30,0.221,0.191,0.306,0.289,0.277,0.154,0.094,southeast,1.7,No
2018/12/21,13:40,0.219,0.191,0.308,0.290,0.277,0.154,0.093,east-southeast,2.9,No
2018/12/21,13:50,0.219,0.190,0.307,0.288,0.279,0.155,0.093,east-southeast,1.8,No
2018/12/21,14:00,0.221,0.190,0.307,0.290,0.275,0.153,0.093,east,0.9,No
2018/12/21,14:10,0.219,0.190,0.308,0.288,0.276,0.154,0.093,east-southeast,1.5,No
2018/12/21,14:20,0.220,0.190,0.307,0.289,0.275,0.153,0.093,east-southeast,1.5,No
2018/12/21,14:30,0.218,0.190,0.307,0.287,0.278,0.154,0.094,-,CALM,No
2018/12/21,14:40,0.219,0.190,0.309,0.288,0.276,0.154,0.094,east-southeast,0.7,No
2018/12/21,14:50,0.218,0.191,0.307,0.290,0.276,0.155,0.094,-,CALM,No
2018/12/21,15:00,0.218,0.191,0.308,0.288,0.278,0.153,0.094,west,1.7,No
2018/12/21,15:10,0.217,0.190,0.308,0.289,0.277,0.154,0.093,west,2.5,No
2018/12/21,15:20,0.218,0.191,0.307,0.289,0.278,0.154,0.093,west,2.5,No
2018/12/21,15:30,0.220,0.190,0.307,0.290,0.276,0.154,0.094,west-northwest,2.5,No
2018/12/21,15:40,0.220,0.190,0.308,0.291,0.276,0.154,0.094,west-northwest,3.0,No
2018/12/21,15:50,0.221,0.190,0.306,0.290,0.278,0.153,0.094,northwest,3.0,No
2018/12/21,16:00,0.221,0.191,0.306,0.289,0.275,0.155,0.094,northwest,4.6,No
2018/12/21,16:10,0.221,0.191,0.308,0.290,0.278,0.153,0.094,west-northwest,2.9,No
2018/12/21,16:20,0.221,0.190,0.308,0.290,0.277,0.154,0.094,west-northwest,3.6,No
2018/12/21,16:30,0.220,0.191,0.308,0.290,0.276,0.155,0.094,west-northwest,2.7,No
2018/12/21,16:40,0.220,0.191,0.309,0.290,0.276,0.155,0.094,west-northwest,2.1,No
2018/12/21,16:50,0.221,0.191,0.308,0.290,0.277,0.155,0.094,west,1.2,No
2018/12/21,17:00,0.221,0.191,0.308,0.289,0.277,0.154,0.094,west-southwest,1.3,No
2018/12/21,17:10,0.221,0.191,0.308,0.290,0.276,0.155,0.094,southwest,1.8,No
2018/12/21,17:20,0.222,0.190,0.308,0.291,0.277,0.155,0.094,west-southwest,2.4,No
2018/12/21,17:30,0.223,0.191,0.308,0.291,0.275,0.154,0.094,west-southwest,3.7,No
2018/12/21,17:40,0.222,0.191,0.308,0.289,0.275,0.155,0.094,southwest,3.6,No
2018/12/21,17:50,0.222,0.190,0.309,0.290,0.276,0.154,0.094,south-southwest,3.8,No
2018/12/21,18:00,0.221,0.191,0.308,0.291,0.278,0.154,0.093,south-southwest,4.3,No
2018/12/21,18:10,0.221,0.191,0.308,0.289,0.275,0.154,0.094,south-southwest,4.2,No
2018/12/21,18:20,0.223,0.191,0.307,0.290,0.277,0.153,0.094,south-southwest,4.0,No
2018/12/21,18:30,0.221,0.191,0.308,0.289,0.275,0.154,0.093,south-southwest,4.0,No
2018/12/21,18:40,0.222,0.191,0.309,0.291,0.276,0.154,0.094,south-southwest,3.5,No
2018/12/21,18:50,0.222,0.191,0.308,0.290,0.278,0.154,0.094,south-southwest,4.4,No
2018/12/21,19:00,0.221,0.192,0.308,0.290,0.277,0.154,0.094,south-southwest,5.0,No
2018/12/21,19:10,0.221,0.191,0.309,0.290,0.276,0.154,0.094,south-southwest,4.9,No
2018/12/21,19:20,0.221,0.191,0.308,0.292,0.275,0.154,0.094,south-southwest,4.1,No
2018/12/21,19:30,0.222,0.191,0.309,0.290,0.276,0.154,0.094,south-southwest,3.8,No
2018/12/21,19:40,0.221,0.191,0.307,0.290,0.276,0.154,0.094,south-southwest,3.8,No
2018/12/21,19:50,0.222,0.191,0.307,0.290,0.277,0.154,0.094,south,4.4,No
2018/12/21,20:00,0.222,0.190,0.308,0.290,0.276,0.154,0.094,south,4.6,No
2018/12/21,20:10,0.222,0.191,0.308,0.290,0.277,0.154,0.094,south,4.3,No
2018/12/21,20:20,0.221,0.191,0.309,0.289,0.278,0.154,0.094,south,4.6,No
2018/12/21,20:30,0.221,0.192,0.309,0.289,0.276,0.155,0.094,south,4.7,No
2018/12/21,20:40,0.222,0.190,0.310,0.290,0.276,0.154,0.094,south,5.3,No
2018/12/21,20:50,0.221,0.191,0.309,0.290,0.276,0.154,0.094,south,5.6,No
2018/12/21,21:00,0.222,0.192,0.308,0.290,0.276,0.154,0.094,south-southwest,6.0,No
2018/12/21,21:10,0.222,0.191,0.308,0.289,0.277,0.155,0.094,south-southwest,6.7,No
2018/12/21,21:20,0.222,0.191,0.309,0.290,0.277,0.155,0.095,south-southwest,6.0,No
2018/12/21,21:30,0.221,0.191,0.308,0.291,0.278,0.154,0.094,south-southwest,5.9,No
2018/12/21,21:40,0.222,0.191,0.308,0.290,0.275,0.154,0.094,south-southwest,6.5,No
2018/12/21,21:50,0.222,0.191,0.308,0.289,0.277,0.154,0.094,south-southwest,7.3,No
2018/12/21,22:00,0.223,0.192,0.308,0.290,0.277,0.154,0.093,south-southwest,7.0,No
2018/12/21,22:10,0.222,0.190,0.309,0.291,0.277,0.155,0.095,south,6.6,No
2018/12/21,22:20,0.222,0.191,0.308,0.290,0.274,0.154,0.094,south-southwest,7.0,No
2018/12/21,22:30,0.222,0.191,0.307,0.289,0.277,0.154,0.094,south-southwest,6.3,No
2018/12/21,22:40,0.222,0.191,0.309,0.289,0.277,0.154,0.095,south-southwest,7.3,No
2018/12/21,22:50,0.222,0.191,0.310,0.291,0.275,0.155,0.095,south-southwest,7.3,No
2018/12/21,23:00,0.221,0.192,0.307,0.290,0.277,0.155,0.094,south-southwest,8.4,No
2018/12/21,23:10,0.221,0.191,0.308,0.291,0.276,0.154,0.093,south-southwest,7.7,No
2018/12/21,23:20,0.222,0.191,0.310,0.289,0.275,0.155,0.094,south-southwest,6.0,No
2018/12/21,23:30,0.222,0.192,0.309,0.290,0.275,0.155,0.095,south,6.9,No
2018/12/21,23:40,0.222,0.191,0.309,0.290,0.277,0.154,0.094,south-southwest,7.8,No
2018/12/21,23:50,0.221,0.191,0.308,0.290,0.275,0.154,0.094,south,7.3,No
